Location: Drocourt
(49.0571°N, 1.7669°E)
Time: 05:03:22
(UTC+00:00)

Envisat - Visible Passes

Search period start: 04 March 2024 00:00
Search period end: 14 March 2024 00:00
Orbit: 762 x 764 km, 98.3° (Epoch: 03 March)

Date Brightness Start Highest point End Pass type
(mag) Time Alt. Az. Time Alt. Az. Time Alt. Az.
04 Mar 5.8 01:52:36 10° ENE 01:53:39 12° ENE 01:53:39 12° ENE visible
04 Mar 3.2 03:29:27 10° NNE 03:33:49 66° NNE 03:33:49 66° NNE visible
04 Mar 4.5 05:09:43 10° NNW 05:12:54 17° NW 05:14:00 16° WNW visible
05 Mar 4.3 02:52:20 10° NNE 02:56:14 38° ENE 02:56:14 38° ENE visible
05 Mar 3.8 04:31:35 10° N 04:36:01 31° WNW 04:36:24 31° WNW visible
06 Mar 5.2 02:15:45 10° NE 02:18:38 20° ENE 02:18:38 20° ENE visible
06 Mar 3.0 03:53:55 10° N 03:58:48 60° WNW 03:58:48 60° WNW visible
06 Mar 4.9 05:35:26 10° NW 05:36:55 11° NW 05:38:23 10° WNW visible
07 Mar 3.3 03:16:34 10° NNE 03:21:13 64° ENE 03:21:13 64° ENE visible
07 Mar 4.3 04:56:27 10° NNW 05:00:09 21° WNW 05:01:23 19° WNW visible
08 Mar 4.5 02:39:36 10° NNE 02:43:37 32° E 02:43:37 32° E visible
08 Mar 3.5 04:18:31 10° N 04:23:12 39° WNW 04:23:47 37° W visible
09 Mar 5.4 02:03:20 10° NE 02:06:02 16° E 02:06:02 16° E visible
09 Mar 2.8 03:40:58 10° NNE 03:46:03 77° WNW 03:46:12 76° W visible
09 Mar 4.8 05:21:40 10° NNW 05:24:12 14° NW 05:26:22 11° W visible
10 Mar 3.6 03:03:43 10° NNE 03:08:36 53° E 03:08:36 53° E visible
10 Mar 4.1 04:43:16 10° N 04:47:23 26° WNW 04:48:46 23° W visible
11 Mar 4.8 02:26:55 10° NE 02:31:01 26° E 02:31:01 26° E visible
11 Mar 3.2 04:05:29 10° N 04:10:22 48° WNW 04:11:11 44° W visible
12 Mar 5.6 01:51:14 10° ENE 01:53:23 13° E 01:53:25 13° E visible
12 Mar 2.9 03:28:02 10° NNE 03:33:09 84° ESE 03:33:35 74° S visible
12 Mar 4.6 05:08:16 10° NNW 05:11:29 17° WNW 05:13:45 13° W visible
13 Mar 4.0 02:50:55 10° NNE 02:55:43 41° E 02:55:59 41° ESE visible
13 Mar 3.8 04:30:08 10° N 04:34:35 31° WNW 04:36:09 26° W visible
